This is the latest recevied weather packets stored in our database for station/object K5OBH. If no packets are shown the sender has not sent any weather packets the latest 1 day(s).
| Time | Temp. | Humidity | Pressure | Rain* | Wind** | Luminosity | Snow |
|---|---|---|---|---|---|---|---|
| 1778025435 | 11.11° C | 79% | 1009.6 hPa | 0 mm | 3.58 m/s, 51° | 29 W/m² | - |
| 1778025132 | 11.11° C | 79% | 1009.5 hPa | 0 mm | 2.24 m/s, 30° | 37 W/m² | - |
| 1778024829 | 11.11° C | 79% | 1009.8 hPa | 0 mm | 4.92 m/s, 9° | 38 W/m² | - |
| 1778024527 | 11.11° C | 80% | 1009.4 hPa | 0 mm | 2.68 m/s, 67° | 42 W/m² | - |
| 1778024223 | 11.11° C | 79% | 1009.6 hPa | 0 mm | 2.68 m/s, 10° | 32 W/m² | - |
| 1778023921 | 11.11° C | 79% | 1009.9 hPa | 0 mm | 2.24 m/s, 14° | 27 W/m² | - |
| 1778023618 | 11.11° C | 79% | 1009.2 hPa | 0 mm | 4.02 m/s, 339° | 50 W/m² | - |
| 1778023315 | 11.11° C | 78% | 1009.4 hPa | 0 mm | 4.02 m/s, 3° | 36 W/m² | - |
| 1778023012 | 11.11° C | 78% | 1009.6 hPa | 0 mm | 3.58 m/s, 24° | 44 W/m² | - |
| 1778022711 | 11.67° C | 77% | 1009.7 hPa | 0 mm | 2.68 m/s, 1° | 48 W/m² | - |
| 1778022408 | 11.67° C | 77% | 1009.9 hPa | 0 mm | 4.92 m/s, 25° | 53 W/m² | - |
| 1778022104 | 11.67° C | 78% | 1009.7 hPa | 0 mm | 2.24 m/s, 340° | 49 W/m² | - |
| 1778021795 | 11.67° C | 77% | 1010 hPa | 0 mm | 3.58 m/s, 60° | 54 W/m² | - |
| 1778021492 | 11.67° C | 78% | 1009.6 hPa | 0 mm | 2.24 m/s, 88° | 57 W/m² | - |
| 1778021188 | 11.67° C | 77% | 1009.5 hPa | 0 mm | 4.02 m/s, 344° | 62 W/m² | - |
| 1778020886 | 11.67° C | 78% | 1009.2 hPa | 0 mm | 4.02 m/s, 2° | 58 W/m² | - |
| 1778020583 | 12.22° C | 77% | 1009.3 hPa | 0 mm | 2.24 m/s, 31° | 68 W/m² | - |
| 1778020279 | 11.67° C | 77% | 1009.7 hPa | 0 mm | 1.34 m/s, 26° | 92 W/m² | - |
| 1778019975 | 11.67° C | 77% | 1009.4 hPa | 0 mm | 3.13 m/s, 352° | 84 W/m² | - |
| 1778019672 | 11.67° C | 78% | 1009.1 hPa | 0 mm | 1.79 m/s, 34° | 81 W/m² | - |
| 1778019369 | 11.67° C | 78% | 1009.4 hPa | 0 mm | 4.02 m/s, 26° | 64 W/m² | - |
| 1778019065 | 11.67° C | 77% | 1009.1 hPa | 0 mm | 2.68 m/s, 358° | 68 W/m² | - |
| 1778018763 | 12.22° C | 76% | 1009.2 hPa | 0 mm | 3.13 m/s, 35° | 62 W/m² | - |
| 1778018460 | 12.22° C | 76% | 1009 hPa | 0 mm | 3.13 m/s, 49° | 99 W/m² | - |
| 1778018158 | 12.22° C | 76% | 1009.2 hPa | 0 mm | 1.79 m/s, 107° | 88 W/m² | - |
* Rain latest hour (hover to see other rain measurements)
** Current wind speed in m/s (hover to see current wind gust speed)